Location: Dal�� Lhota
(48.7500°N, 14.0167°E)
Time: 02:37:19
(UTC+00:00)

ATLAS 2AS CENTAUR R/B - Pass Details

Date: 24 September 2020
Orbit: 939 x 1273 km, 63.7° (Epoch: 27 October)

Event Time Altitude Azimuth Distance (km) Brightness Sun altitude
Rises 20:15:51 0° 240° (WSW) 4,216 6.0 -31.1°
Reaches altitude 10° 20:18:44 10° 244° (WSW) 3,261 5.4 -31.5°
Maximum altitude 20:26:32 55° 321° (NW) 1,498 3.6 -32.4°
Drops below altitude 10° 20:34:11 10° 39° (NE) 3,198 5.2 -33.3°
Sets 20:37:00 0° 44° (NE) 4,130 5.8 -33.6°
